This is the latest recevied weather packets stored in our database for station/object G4WLC-1. If no packets are shown the sender has not sent any weather packets the latest 1 day(s).
| Time | Temp. | Humidity | Pressure | Rain* | Wind** | Luminosity | Snow |
|---|---|---|---|---|---|---|---|
| 1777988884 | 15° C | 61% | 1013.9 hPa | 0 mm | 0.45 m/s, 286° | - | - |
| 1777988584 | 15° C | 63% | 1013.9 hPa | 0 mm | 0.45 m/s, 236° | - | - |
| 1777988284 | 15° C | 61% | 1014 hPa | 0 mm | 0.45 m/s, 2° | - | - |
| 1777987984 | 15.56° C | 64% | 1013.9 hPa | 0 mm | 0.45 m/s, 307° | - | - |
| 1777987684 | 15° C | 64% | 1014 hPa | 0 mm | 0.45 m/s, 198° | - | - |
| 1777987384 | 15° C | 63% | 1013.9 hPa | 0 mm | 0.45 m/s, 251° | - | - |
| 1777987084 | 14.44° C | 62% | 1013.8 hPa | 0 mm | 0.45 m/s, 276° | - | - |
| 1777986784 | 14.44° C | 61% | 1013.9 hPa | 0 mm | 0.45 m/s, 342° | - | - |
| 1777986484 | 14.44° C | 62% | 1014 hPa | 0 mm | 0.45 m/s, 98° | - | - |
| 1777986186 | 14.44° C | 62% | 1013.9 hPa | 0 mm | 0.45 m/s, 41° | - | - |
| 1777985884 | 14.44° C | 63% | 1013.9 hPa | 0 mm | 0.45 m/s, 20° | - | - |
| 1777985584 | 14.44° C | 62% | 1013.9 hPa | 0 mm | 0.45 m/s, 127° | - | - |
| 1777985284 | 14.44° C | 60% | 1013.8 hPa | 0 mm | 0.45 m/s, 345° | - | - |
| 1777984984 | 14.44° C | 59% | 1013.8 hPa | 0 mm | 0.89 m/s, 18° | - | - |
| 1777984684 | 15° C | 58% | 1013.7 hPa | 0 mm | 0.45 m/s, 88° | - | - |
| 1777984384 | 15° C | 60% | 1013.8 hPa | 0 mm | 0.45 m/s, 30° | - | - |
| 1777984084 | 15° C | 58% | 1013.7 hPa | 0 mm | 0 m/s | - | - |
| 1777983784 | 15° C | 59% | 1013.8 hPa | 0 mm | 0.45 m/s, 1° | - | - |
| 1777983484 | 14.44° C | 58% | 1013.8 hPa | 0 mm | 0.45 m/s, 64° | - | - |
| 1777983184 | 15° C | 57% | 1013.8 hPa | 0 mm | 0.45 m/s, 305° | - | - |
| 1777982884 | 15.56° C | 55% | 1013.7 hPa | 0 mm | 0.89 m/s, 42° | - | - |
| 1777982584 | 15.56° C | 58% | 1013.7 hPa | 0 mm | 0.45 m/s, 32° | - | - |
| 1777982284 | 15.56° C | 61% | 1013.6 hPa | 0 mm | 0.45 m/s, 280° | - | - |
| 1777981984 | 15° C | 58% | 1013.9 hPa | 0 mm | 0.45 m/s, 349° | - | - |
| 1777981684 | 15° C | 58% | 1013.8 hPa | 0 mm | 0.45 m/s, 288° | - | - |
* Rain latest hour (hover to see other rain measurements)
** Current wind speed in m/s (hover to see current wind gust speed)